Japanese version Home page |
Updated on November 27, 2024 |
Profile
|
Orbital ElementsEpoch 2024 Oct. 17.0 TT = JDT 2460600.5 T 2024 May 7.76857 TT Rudenko q 2.3452039 (2000.0) P Q n 0.17240259 Peri. 309.11264 +0.93916052 +0.31385225 a 3.1972274 Node 33.28127 -0.17945800 +0.79478362 e 0.2664883 Incl. 14.73247 -0.29286917 +0.51943794 P 5.72 From 74 observations 2024 Sept. 8-Nov. 5, mean residual 0".7.
|
Magnitudes Graphm1 = 14.5 + 5 log d + 10.0 log r
|
The orbital elements are published on M.P.E.C. 2024-V117.
|